BMCB-21 Weather Reports


Display with metric or nautical units.
time (UTC)temp
F
wind
direction
speed
MPH
gust
MPH
rain 1hr
in
rain 24hr
in
rain mn
in
humidity
%
barometer
mb
20260506183022 53 0 0.0 0.0 0.00 0.50 0.38 80 1009.5
20260506182021 53 0 0.0 0.0 0.00 0.50 0.38 79 1009.3
20260506181021 54 0 0.0 0.0 0.00 0.51 0.38 78 1009.1
20260506180045 54 0 0.0 0.0 0.00 0.51 0.38 80 1009.0
20260506175044 54 0 0.0 0.0 0.00 0.52 0.38 84 1008.9
20260506174045 54 0 0.0 0.0 0.00 0.52 0.38 83 1008.7
20260506173027 54 0 0.0 0.0 0.00 0.53 0.38 81 1008.6
20260506172021 54 0 0.0 0.0 0.00 0.53 0.38 81 1008.6
20260506171047 54 0 0.0 0.0 0.00 0.53 0.38 81 1008.5
20260506165021 55 0 0.0 0.0 0.00 0.53 0.38 78 1008.4
20260506164047 55 0 0.0 0.0 0.00 0.53 0.38 78 1008.3
20260506163044 55 0 0.0 0.0 0.00 0.53 0.38 78 1008.3
20260506161021 55 0 0.0 0.0 0.00 0.53 0.38 78 1008.4
20260506160042 55 0 0.0 0.0 0.00 0.53 0.38 77 1008.3
20260506155021 55 0 0.0 0.0 0.00 0.53 0.38 75 1008.3
20260506154052 55 0 0.0 0.0 0.00 0.53 0.38 75 1008.3
20260506153021 55 0 0.0 0.0 0.00 0.53 0.38 76 1008.2
20260506152046 56 0 0.0 0.0 0.00 0.53 0.38 77 1008.1
20260506150044 56 0 0.0 0.0 0.00 0.53 0.38 79 1008.1
20260506145049 56 0 0.0 0.0 0.00 0.53 0.38 80 1008.0
20260506144046 56 0 0.0 0.0 0.00 0.53 0.38 82 1008.0
20260506143044 55 0 0.0 0.0 0.00 0.53 0.38 81 1008.1
20260506142022 55 0 0.0 0.0 0.00 0.53 0.38 81 1008.1
20260506141022 55 0 0.0 0.0 0.00 0.53 0.38 83 1008.2
20260506140050 55 0 0.0 0.0 0.00 0.53 0.38 83 1008.2
20260506135050 55 0 0.0 0.0 0.00 0.53 0.38 84 1008.2
20260506134022 55 0 0.0 0.0 0.00 0.53 0.38 85 1008.2
20260506133022 54 0 0.0 0.0 0.00 0.53 0.38 84 1008.2
20260506132042 54 0 0.0 0.0 0.00 0.53 0.38 86 1008.2
20260506131021 53 0 0.0 0.0 0.00 0.53 0.38 86 1008.2
20260506130022 53 0 0.0 0.0 0.00 0.53 0.38 85 1008.2
20260506124043 55 0 0.0 0.0 0.00 0.53 0.38 82 1008.0
20260506123046 55 0 0.0 0.0 0.00 0.53 0.38 85 1007.9
20260506122045 53 0 0.0 0.0 0.00 0.53 0.38 86 1007.9
20260506121041 54 0 0.0 0.0 0.00 0.53 0.38 84 1007.9
20260506114022 52 0 0.0 0.0 0.00 0.53 0.38 90 1007.9
20260506111046 51 0 0.0 0.0 0.00 0.53 0.38 91 1008.0
20260506110047 51 0 0.0 0.0 0.00 0.53 0.38 92 1008.0
20260506105023 51 0 0.0 0.0 0.00 0.53 0.38 93 1008.0
20260506104047 50 0 0.0 0.0 0.01 0.53 0.38 93 1008.1
20260506103045 50 0 0.0 0.0 0.01 0.53 0.38 94 1008.1
20260506102045 50 0 0.0 0.0 0.01 0.53 0.38 94 1008.0
20260506101022 50 0 0.0 0.0 0.02 0.53 0.38 95 1007.9
20260506100039 49 0 0.0 0.0 0.02 0.53 0.38 96 1007.8
20260506095046 49 0 0.0 0.0 0.03 0.53 0.38 96 1007.7
20260506094037 49 0 0.0 0.0 0.03 0.53 0.38 96 1007.7
20260506093042 49 0 0.0 0.0 0.02 0.52 0.37 96 1007.6
20260506092037 48 0 0.0 0.0 0.03 0.52 0.37 96 1007.5
20260506091046 48 0 0.0 0.0 0.03 0.52 0.37 97 1007.5
20260506090047 48 0 0.0 0.0 0.02 0.51 0.36 97 1007.4
20260506084028 48 0 0.0 0.0 0.01 0.50 0.35 97 1007.2
20260506083045 48 0 0.0 0.0 0.02 0.50 0.35 97 1007.1
20260506082046 48 0 0.0 0.0 0.02 0.50 0.35 97 1007.1
20260506081044 48 0 0.0 0.0 0.01 0.49 0.34 97 1007.0
20260506073038 47 0 0.0 0.0 0.02 0.50 0.34 97 1006.7
20260506072045 47 0 0.0 0.0 0.01 0.49 0.33 98 1006.7
20260506062043 46 0 0.0 0.0 0.03 0.48 0.32 98 1006.5
20260506061043 46 0 0.0 0.0 0.04 0.48 0.32 98 1006.6
20260506051047 46 0 0.0 0.0 0.06 0.45 0.29 97 1006.5
20260506045043 46 0 0.0 0.0 0.05 0.43 0.28 97 1006.4
20260506044043 46 0 0.0 0.0 0.04 0.43 0.27 97 1006.4
20260506043044 46 0 0.0 0.0 0.04 0.43 0.26 97 1006.4
20260506042044 46 0 0.0 0.0 0.03 0.43 0.25 97 1006.3
20260506041043 46 0 0.0 0.0 0.02 0.43 0.24 97 1006.3
20260506040045 47 0 0.0 0.0 0.01 0.42 0.23 97 1006.4
20260506035047 47 0 0.0 0.0 0.02 0.43 0.23 97 1006.4
20260506033044 47 0 0.0 0.0 0.03 0.50 0.23 97 1006.4
20260506032045 47 0 0.0 0.0 0.03 0.53 0.22 97 1006.4
20260506031045 47 0 0.0 0.0 0.04 0.58 0.22 97 1006.4
20260506030043 47 0 0.0 0.0 0.05 0.65 0.22 97 1006.4
20260506025044 48 0 0.0 0.0 0.06 0.67 0.22 97 1006.4
20260506024044 48 0 0.0 0.0 0.05 0.66 0.21 97 1006.5
20260506022047 48 0 0.0 0.0 0.05 0.65 0.20 96 1006.5
20260506021045 48 0 0.0 0.0 0.06 0.65 0.19 96 1006.5
20260506020045 48 0 0.0 0.0 0.05 0.64 0.18 96 1006.6
20260506015045 48 0 0.0 0.0 0.05 0.63 0.17 97 1006.6
20260506014045 48 0 0.0 0.0 0.05 0.62 0.17 97 1006.6
20260506013047 48 0 0.0 0.0 0.06 0.62 0.17 97 1006.6
20260506012045 48 0 0.0 0.0 0.06 0.61 0.16 97 1006.6
20260506011045 49 0 0.0 0.0 0.06 0.61 0.15 97 1006.6
20260506005046 49 0 0.0 0.0 0.06 0.59 0.13 97 1006.7
20260506004048 49 0 0.0 0.0 0.06 0.58 0.13 97 1006.8
20260506003044 49 0 0.0 0.0 0.06 0.57 0.12 97 1006.8
20260506002046 49 0 0.0 0.0 0.06 0.57 0.11 97 1006.9
20260506001044 49 0 0.0 0.0 0.06 0.56 0.10 97 1006.9
20260506000046 49 0 0.0 0.0 0.06 0.55 0.09 96 1007.0
20260505235047 49 0 0.0 0.0 0.06 0.54 0.09 96 1007.1
20260505234047 49 0 0.0 0.0 0.05 0.53 0.07 96 1007.2
20260505233047 49 0 0.0 0.0 0.05 0.52 0.06 96 1007.2
20260505232048 49 0 0.0 0.0 0.04 0.51 0.06 96 1007.2
20260505231048 49 0 0.0 0.0 0.04 0.50 0.05 96 1007.3
20260505230048 49 0 0.0 0.0 0.04 0.50 0.04 96 1007.3
20260505225022 49 0 0.0 0.0 0.03 0.49 0.03 96 1007.4
20260505224047 49 0 0.0 0.0 0.03 0.48 0.02 96 1007.4
20260505223022 49 0 0.0 0.0 0.04 0.48 0.02 96 1007.4
20260505222038 49 0 0.0 0.0 0.04 0.47 0.02 96 1007.4
20260505221021 49 0 0.0 0.0 0.05 0.47 0.02 96 1007.4
20260505220045 50 0 0.0 0.0 0.05 0.46 0.01 96 1007.5
20260505215022 50 0 0.0 0.0 0.05 0.46 0.46 96 1007.6
20260505214024 50 0 0.0 0.0 0.06 0.46 0.46 96 1007.6
20260505212025 50 0 0.0 0.0 0.05 0.44 0.44 96 1007.7
20260505211048 50 0 0.0 0.0 0.05 0.43 0.43 96 1007.7
20260505210031 50 0 0.0 0.0 0.05 0.43 0.43 96 1007.8
20260505205032 50 0 0.0 0.0 0.04 0.42 0.42 96 1007.8
20260505204036 50 0 0.0 0.0 0.04 0.41 0.41 96 1007.8
20260505203038 50 0 0.0 0.0 0.04 0.40 0.40 96 1007.8
20260505202039 50 0 0.0 0.0 0.03 0.39 0.39 96 1007.7
20260505201023 50 0 0.0 0.0 0.04 0.39 0.39 96 1007.6
20260505200047 50 0 0.0 0.0 0.04 0.39 0.39 96 1007.6
20260505195037 50 0 0.0 0.0 0.03 0.38 0.38 96 1007.5
20260505194051 50 0 0.0 0.0 0.04 0.38 0.38 96 1007.5
20260505193048 50 0 0.0 0.0 0.04 0.37 0.37 95 1007.4
20260505192025 50 0 0.0 0.0 0.03 0.36 0.36 95 1007.4
20260505191047 50 0 0.0 0.0 0.04 0.36 0.36 95 1007.3
20260505190022 50 0 0.0 0.0 0.03 0.35 0.35 95 1007.3
20260505185025 50 0 0.0 0.0 0.03 0.35 0.35 96 1007.3